Location: Rounton
(54.4000°N, 1.3500°W)
Time: 13:54:38
(UTC+00:00)

Transit 4A - Pass Details

Date: 08 December 2021
Orbit: 864 x 981 km, 66.8° (Epoch: 18 January)

Event Time Altitude Azimuth Distance (km) Brightness Sun altitude
Rises 17:13:16 0° 166° (SSE) 3,463 11.0 -12.2°
Reaches altitude 10° 17:16:23 10° 149° (SSE) 2,546 10.1 -12.7°
Maximum altitude 17:20:25 19° 106° (ESE) 1,992 9.2 -13.2°
Enters shadow 17:22:03 17° 85° (E) 2,110 9.2 -13.4°
Drops below altitude 10° 17:24:31 10° 63° (ENE) 2,610 - -13.8°
Sets 17:27:45 0° 47° (NE) 3,580 - -14.2°
